Regional Weather Roundup
Issued by NWS

Home | Current Version | Previous Version | Text Only | Print | Product List | Glossary Off
Versions: 1 2 3 4 5 6 7 8 9 10 11 12 13 14 15 16 17 18 19 20 21 22 23 24 25 26 27 28 29 30 31 32 33 34 35 36 37 38 39 40 41 42 43 44 45 46 47 48 49 50

000
ASUS43 KLMK 171410
RWRKY
KENTUCKY REGIONAL WEATHER ROUNDUP
NATIONAL WEATHER SERVICE LOUISVILLE KY
1000 AM EDT TUE OCT 17 2017

NOTE "FAIR" INDICATES FEW OR NO CLOUDS BELOW 12,000 FEET
WITH NO SIGNIFICANT WEATHER AND/OR OBSTRUCTIONS TO VISIBILITY.

KYZ001>023-026-027-061>063-070>075-171500-
WESTERN AND SOUTH CENTRAL KENTUCKY

CITY           SKY/WX    TMP DP  RH WIND       PRES   REMARKS
PADUCAH        SUNNY     49  45  86 E3        30.38R
HENDERSON      SUNNY     50  43  77 CALM      30.40R
OWENSBORO      SUNNY     51  44  77 VRB3      30.40R
HOPKINSVILLE   NOT AVBL
BOWLING GREEN  SUNNY     49  46  90 CALM      30.40R
GLASGOW        SUNNY     51  46  84 CALM      30.40R
$$

KYZ024-025-028>034-038-045-046-053-171500-
NORTH CENTRAL KENTUCKY

CITY           SKY/WX    TMP DP  RH WIND       PRES   REMARKS
LOUISVILLE/SDF MOSUNNY   49  43  80 CALM      30.40R
LOUISVILLE/LOU SUNNY     50  47  89 CALM      30.41R
FORT KNOX      NOT AVBL
$$

KYZ035>037-039>044-047>052-055>060-089>105-171500-
NORTHEAST KENTUCKY

CITY           SKY/WX    TMP DP  RH WIND       PRES   REMARKS
LEXINGTON      SUNNY     52  47  83 CALM      30.39S
COVINGTON      MOSUNNY   51  43  74 SW3       30.38R
FRANKFORT      SUNNY     49  44  83 CALM      30.39R
$$

KYZ054-064>069-076>088-106>120-171500-
SOUTHEAST KENTUCKY

CITY           SKY/WX    TMP DP  RH WIND       PRES   REMARKS
JACKSON        SUNNY     46  43  89 CALM      30.40R
LONDON         SUNNY     47  43  86 CALM      30.40R
SOMERSET       CLOUDY    43  43 100 CALM      30.42S FOG
MIDDLESBORO    FOG       41  41 100 CALM      30.42S VSB 3/4
MONTICELLO     SUNNY     46  43  89 VRB7      30.42S
$$




USA.gov is the U.S. government's official web portal to all federal, state and local government web resources and services.